When you browse on this site, cookies collect data to enhance your experience and personalize the content and advertising you see.
Visit our Privacy Policy to learn more. By continuing to use the site, you agree to this use of cookies and data.
  • In Czech Republic
  • List of Countries
  • For 7 days
  • Water Temperature
  • Satellite Maps
  • Weather Map
  • Weather Widgets
  • user-avatar
    Login

    Hourly Weather Andora

    Today, 12 December, Wednesday

    Time Temperature Precipitation Wind Pressure Humidity
    00:00 +1°C° 0 mm 2 mps 624 mmHg 60%
    01:00 +1°C° 0 mm 2 mps 624 mmHg 60%
    02:00 -1°C° 0 mm 2 mps 624 mmHg 61%
    03:00 -1°C° 0 mm 2 mps 624 mmHg 62%
    04:00 -1°C° 0 mm 2 mps 624 mmHg 63%
    05:00 -1°C° 0 mm 2 mps 624 mmHg 64%
    06:00 -2°C° 0 mm 2 mps 624 mmHg 65%
    07:00 -1°C° 0 mm 2 mps 624 mmHg 63%
    08:00 +2°C° 0 mm 1 mps 624 mmHg 60%
    09:00 +3°C° 0 mm 1 mps 625 mmHg 58%
    10:00 +5°C° 0 mm 1 mps 625 mmHg 58%
    11:00 +6°C° 0 mm 1 mps 625 mmHg 58%
    12:00 +7°C° 0 mm 1 mps 626 mmHg 58%
    13:00 +6°C° 0 mm 1 mps 625 mmHg 63%
    14:00 +5°C° 0 mm 1 mps 624 mmHg 68%
    15:00 +4°C° 0 mm 1 mps 624 mmHg 73%
    16:00 +3°C° 0 mm 1 mps 623 mmHg 79%
    17:00 +1°C° 0 mm 0 mps 623 mmHg 84%
    18:00 0°C° 0 mm 0 mps 622 mmHg 90%
    19:00 0°C° 0 mm 0 mps 622 mmHg 90%
    20:00 -1°C° 0 mm 0 mps 622 mmHg 90%
    21:00 0°C° 0 mm 1 mps 621 mmHg 90%
    22:00 0°C° 0 mm 1 mps 621 mmHg 90%
    23:00 0°C° 0 mm 1 mps 621 mmHg 89%

    Tomorrow, 13 December, Thursday

    Time Temperature Precipitation Wind Pressure Humidity
    00:00 0°C° 0 mm 1 mps 620 mmHg 89%
    01:00 0°C° 0 mm 1 mps 620 mmHg 90%
    02:00 0°C° 0 mm 1 mps 619 mmHg 90%
    03:00 0°C° 0 mm 1 mps 618 mmHg 91%
    04:00 0°C° 0 mm 1 mps 618 mmHg 89%
    05:00 0°C° 0 mm 1 mps 617 mmHg 87%
    06:00 0°C° 0 mm 1 mps 617 mmHg 85%
    07:00 0°C° 0.1 mm 1 mps 617 mmHg 83%
    08:00 +1°C° 0.1 mm 1 mps 617 mmHg 81%
    09:00 +2°C° 0.1 mm 1 mps 617 mmHg 79%
    10:00 +2°C° 0.9 mm 1 mps 616 mmHg 82%
    11:00 +2°C° 0.9 mm 1 mps 616 mmHg 85%
    12:00 +2°C° 0.9 mm 1 mps 616 mmHg 88%
    13:00 +2°C° 0.8 mm 1 mps 615 mmHg 89%
    14:00 +2°C° 0.8 mm 1 mps 615 mmHg 90%
    15:00 +1°C° 0.8 mm 2 mps 615 mmHg 90%
    16:00 -1°C° 0.4 mm 2 mps 615 mmHg 90%
    17:00 -1°C° 0.4 mm 2 mps 615 mmHg 91%
    18:00 -1°C° 0.4 mm 3 mps 615 mmHg 91%
    19:00 -2°C° 0.4 mm 3 mps 616 mmHg 90%
    20:00 -2°C° 0.4 mm 3 mps 616 mmHg 89%
    21:00 -2°C° 0.4 mm 3 mps 616 mmHg 87%
    22:00 -2°C° 0.3 mm 3 mps 617 mmHg 87%
    23:00 -2°C° 0.3 mm 3 mps 617 mmHg 87%

    Day after tomorrow, 14 December, Friday

    Time Temperature Precipitation Wind Pressure Humidity
    00:00 -2°C° 0.3 mm 3 mps 617 mmHg 86%
    01:00 -2°C° 0.2 mm 3 mps 618 mmHg 86%
    02:00 -2°C° 0.2 mm 3 mps 618 mmHg 86%
    03:00 -2°C° 0.2 mm 3 mps 618 mmHg 85%
    04:00 -2°C° 0.3 mm 3 mps 619 mmHg 85%
    05:00 -2°C° 0.3 mm 3 mps 619 mmHg 86%
    06:00 -2°C° 0.3 mm 3 mps 619 mmHg 86%
    07:00 -2°C° 0.1 mm 3 mps 620 mmHg 84%
    08:00 -1°C° 0.1 mm 3 mps 621 mmHg 83%
    09:00 -1°C° 0.1 mm 3 mps 621 mmHg 81%
    10:00 0°C° 0.1 mm 3 mps 622 mmHg 79%
    11:00 0°C° 0.1 mm 3 mps 622 mmHg 76%
    12:00 +1°C° 0.1 mm 3 mps 622 mmHg 74%
    13:00 +1°C° 0.1 mm 3 mps 623 mmHg 75%
    14:00 +1°C° 0.1 mm 3 mps 623 mmHg 75%
    15:00 +1°C° 0.1 mm 3 mps 623 mmHg 76%
    16:00 0°C° 0.1 mm 3 mps 623 mmHg 79%
    17:00 -1°C° 0.1 mm 3 mps 623 mmHg 81%
    18:00 -2°C° 0.1 mm 3 mps 623 mmHg 84%
    19:00 -2°C° 0 mm 3 mps 623 mmHg 84%
    20:00 -2°C° 0 mm 3 mps 624 mmHg 84%
    21:00 -4°C° 0 mm 3 mps 624 mmHg 84%
    22:00 -4°C° 0 mm 3 mps 624 mmHg 84%
    23:00 -4°C° 0 mm 2 mps 624 mmHg 84%

    15 December, Saturday

    Time Temperature Precipitation Wind Pressure Humidity
    00:00 -4°C° 0 mm 2 mps 624 mmHg 84%
    01:00 -4°C° 0 mm 2 mps 623 mmHg 82%
    02:00 -4°C° 0 mm 2 mps 623 mmHg 80%
    03:00 -4°C° 0 mm 2 mps 623 mmHg 79%
    04:00 -4°C° 0 mm 2 mps 623 mmHg 77%
    05:00 -4°C° 0 mm 2 mps 623 mmHg 76%
    06:00 -4°C° 0 mm 2 mps 623 mmHg 74%
    07:00 -3°C° 0 mm 2 mps 624 mmHg 70%
    08:00 -1°C° 0 mm 2 mps 625 mmHg 65%
    09:00 +1°C° 0 mm 2 mps 626 mmHg 61%
    10:00 +3°C° 0 mm 2 mps 626 mmHg 61%
    11:00 +5°C° 0 mm 1 mps 627 mmHg 61%
    12:00 +6°C° 0 mm 1 mps 627 mmHg 61%
    13:00 +6°C° 0 mm 1 mps 627 mmHg 66%
    14:00 +6°C° 0 mm 1 mps 626 mmHg 70%
    15:00 +5°C° 0 mm 1 mps 626 mmHg 75%
    16:00 +5°C° 0 mm 1 mps 626 mmHg 79%
    17:00 +4°C° 0 mm 1 mps 626 mmHg 82%
    18:00 +3°C° 0 mm 2 mps 626 mmHg 86%
    19:00 +4°C° 0 mm 1 mps 626 mmHg 86%
    20:00 +4°C° 0 mm 1 mps 626 mmHg 87%
    21:00 +4°C° 0 mm 1 mps 626 mmHg 87%
    22:00 +3°C° 0 mm 1 mps 626 mmHg 87%
    23:00 +3°C° 0 mm 1 mps 626 mmHg 87%

    16 December, Sunday

    Time Temperature Precipitation Wind Pressure Humidity
    00:00 +3°C° 0 mm 1 mps 625 mmHg 87%
    01:00 +3°C° 0 mm 1 mps 625 mmHg 87%
    02:00 +3°C° 0 mm 1 mps 625 mmHg 87%
    03:00 +3°C° 0 mm 1 mps 625 mmHg 88%
    04:00 +3°C° 0 mm 1 mps 624 mmHg 87%
    05:00 +3°C° 0 mm 1 mps 624 mmHg 86%
    06:00 +2°C° 0 mm 1 mps 624 mmHg 86%
    07:00 +3°C° 0 mm 1 mps 625 mmHg 82%
    08:00 +4°C° 0 mm 1 mps 625 mmHg 79%
    09:00 +5°C° 0 mm 1 mps 626 mmHg 76%
    10:00 +6°C° 0 mm 1 mps 626 mmHg 73%
    11:00 +6°C° 0 mm 2 mps 626 mmHg 71%
    12:00 +7°C° 0 mm 2 mps 626 mmHg 68%
    13:00 +7°C° 0 mm 2 mps 626 mmHg 71%
    14:00 +6°C° 0 mm 2 mps 626 mmHg 73%
    15:00 +6°C° 0 mm 2 mps 625 mmHg 75%
    16:00 +4°C° 0 mm 2 mps 625 mmHg 80%
    17:00 +4°C° 0 mm 1 mps 625 mmHg 84%
    18:00 +2°C° 0 mm 1 mps 624 mmHg 88%
    19:00 +2°C° 0 mm 1 mps 624 mmHg 88%
    20:00 +2°C° 0 mm 1 mps 625 mmHg 87%
    21:00 +2°C° 0 mm 1 mps 625 mmHg 86%
    22:00 +2°C° 0 mm 1 mps 625 mmHg 85%
    23:00 +2°C° 0 mm 1 mps 625 mmHg 84%

    17 December, Monday

    Time Temperature Precipitation Wind Pressure Humidity
    00:00 +1°C° 0 mm 0 mps 625 mmHg 83%
    01:00 +1°C° 0 mm 0 mps 625 mmHg 83%
    02:00 +2°C° 0 mm 1 mps 625 mmHg 84%
    03:00 +1°C° 0 mm 1 mps 625 mmHg 84%
    04:00 +1°C° 0.2 mm 1 mps 625 mmHg 85%
    05:00 +1°C° 0.2 mm 1 mps 625 mmHg 87%
    06:00 +1°C° 0.2 mm 1 mps 625 mmHg 88%
    07:00 +1°C° 0.3 mm 1 mps 625 mmHg 87%
    08:00 +2°C° 0.3 mm 1 mps 626 mmHg 85%
    09:00 +2°C° 0.3 mm 1 mps 627 mmHg 84%
    10:00 +2°C° 0.8 mm 1 mps 627 mmHg 82%
    11:00 +2°C° 0.8 mm 2 mps 627 mmHg 81%
    12:00 +2°C° 0.8 mm 2 mps 627 mmHg 80%
    13:00 +2°C° 0.2 mm 2 mps 627 mmHg 79%
    14:00 +2°C° 0.2 mm 2 mps 627 mmHg 78%
    15:00 +2°C° 0.2 mm 2 mps 627 mmHg 77%
    16:00 -1°C° 0 mm 2 mps 627 mmHg 80%
    17:00 -2°C° 0 mm 2 mps 626 mmHg 82%
    18:00 -4°C° 0 mm 2 mps 626 mmHg 85%
    19:00 -4°C° 0 mm 2 mps 626 mmHg 81%
    20:00 -2°C° 0 mm 1 mps 627 mmHg 78%
    21:00 -2°C° 0 mm 1 mps 627 mmHg 74%
    22:00 -2°C° 0 mm 1 mps 627 mmHg 72%
    23:00 -2°C° 0 mm 1 mps 626 mmHg 70%
    Show more